CW4352 Weather Reports


time (UTC)temp
C
wind
direction
speed
KPH
gust
KPH
rain 1hr
cm
rain 24hr
cm
rain mn
cm
humidity
%
barometer
mb
20260505111705 13 5 1.6 4.8 0.00 2.44 2.44 97 1007.9
20260505101205 12 5 1.6 4.8 0.00 2.44 2.44 97 1007.9
20260505100704 12 5 3.2 8.0 0.00 2.44 2.44 97 1007.9
20260505094705 13 16 1.6 4.8 0.00 2.44 2.44 97 1007.9
20260505094204 13 17 1.6 4.8 0.03 2.44 2.44 97 1007.7
20260505093705 13 21 1.6 4.8 0.03 2.44 2.44 97 1007.7
20260505093205 13 27 1.6 4.8 0.05 2.44 2.44 97 1007.7
20260505091205 12 30 0.0 3.2 0.23 2.44 2.44 97 1007.7
20260505084705 12 30 0.0 0.0 0.69 2.44 2.44 96 1007.4
20260505083704 12 30 0.0 3.2 0.94 2.41 2.41 96 1007.4
20260505083204 12 30 0.0 3.2 1.02 2.39 2.39 96 1007.4
20260505081705 12 30 0.0 1.6 1.19 2.29 2.29 96 1007.9
20260505081205 12 30 0.0 1.6 1.17 2.21 2.21 96 1007.9
20260505080705 12 30 1.6 4.8 1.14 2.13 2.13 96 1007.9
20260505080204 11 30 0.0 3.2 1.12 2.03 2.03 96 1007.9
20260505074704 11 30 0.0 0.0 1.02 1.75 1.75 96 1007.7
20260505074205 11 30 0.0 0.0 0.99 1.65 1.65 96 1007.7
20260505071205 12 30 0.0 0.0 0.58 1.04 1.04 95 1007.7
20260505070705 12 30 0.0 1.6 0.56 0.99 0.99 95 1007.5
20260505070205 12 30 0.0 4.8 0.58 0.91 0.91 95 1007.9
20260505063705 12 30 0.0 1.6 0.56 0.64 0.64 93 1007.9
20260505063205 12 30 0.0 4.8 0.51 0.58 0.58 93 1007.9
20260505060705 12 30 0.0 3.2 0.36 0.43 0.43 92 1007.9
20260505060204 12 30 0.0 1.6 0.25 0.33 0.33 91 1007.9
20260505054705 12 30 0.0 0.0 0.05 0.13 0.13 91 1007.9
20260505054204 12 30 0.0 1.6 0.00 0.08 0.08 91 1007.9
20260505053705 12 30 0.0 0.0 0.00 0.08 0.08 91 1007.7
20260505051205 12 30 0.0 3.2 0.00 0.08 0.08 90 1007.7
20260505050704 12 30 0.0 1.6 0.03 0.08 0.08 90 1007.7
20260505040204 12 30 0.0 0.0 0.05 0.05 0.05 85 1008.0
20260505033205 13 30 0.0 0.0 0.03 0.03 0.03 76 1008.0
20260505030704 15 30 0.0 3.2 0.00 0.00 0.00 69 1008.0
20260505024205 15 30 0.0 1.6 0.00 0.00 0.00 61 1008.4
20260505021205 15 30 0.0 1.6 0.00 0.00 0.00 54 1008.4
20260505014705 15 30 0.0 0.0 0.00 0.00 0.00 50 1008.5
20260505011205 15 30 0.0 0.0 0.00 0.00 0.00 53 1009.3
20260505010704 15 30 0.0 0.0 0.00 0.00 0.00 50 1009.3
20260505004705 15 30 0.0 1.6 0.00 0.00 0.00 51 1009.3
20260505004204 15 30 0.0 0.0 0.00 0.00 0.00 51 1009.3
20260504234705 16 30 0.0 0.0 0.00 0.00 0.00 51 1010.0
20260504233704 16 30 0.0 0.0 0.00 0.00 0.00 48 1010.0
20260504233204 16 30 0.0 0.0 0.00 0.00 0.00 48 1010.0
20260504231204 17 30 0.0 3.2 0.00 0.00 0.00 45 1009.9
20260504230208 17 30 0.0 1.6 0.00 0.00 0.00 46 1009.9
20260504223703 16 30 0.0 3.2 0.00 0.00 0.00 45 1010.5
20260504220705 16 30 0.0 3.2 0.00 0.00 0.00 46 1010.4
20260504220203 16 30 1.6 8.0 0.00 0.00 0.00 46 1010.4
20260504213204 16 30 0.0 4.8 0.00 0.00 0.00 46 1010.6
20260504211703 16 30 0.0 3.2 0.00 0.00 0.00 46 1010.6
20260504210204 16 30 0.0 4.8 0.00 0.00 0.00 46 1010.6
20260504204704 16 30 1.6 8.0 0.00 0.00 0.00 46 1010.6
20260504204203 16 30 0.0 4.8 0.00 0.00 0.00 47 1010.6
20260504200203 16 30 1.6 4.8 0.00 0.00 0.00 44 1010.5
20260504194203 17 30 3.2 4.8 0.00 0.00 0.00 47 1009.5
20260504193204 17 30 3.2 8.0 0.00 0.00 0.00 49 1009.5
20260504191703 17 30 0.0 3.2 0.00 0.00 0.00 52 1009.5
20260504190704 17 30 3.2 4.8 0.00 0.00 0.00 52 1009.5
20260504190204 17 30 1.6 4.8 0.00 0.00 0.00 51 1009.5
20260504184204 18 30 1.6 8.0 0.00 0.00 0.00 43 1009.5
20260504181703 21 30 0.0 0.0 0.00 0.00 0.00 40 1009.3
20260504180204 21 30 0.0 3.2 0.00 0.00 0.00 39 1009.3
20260504173706 22 30 0.0 1.6 0.00 0.00 0.00 37 1009.4
20260504173205 22 30 1.6 9.7 0.00 0.00 0.00 38 1009.4
20260504171205 22 30 1.6 4.8 0.00 0.00 0.00 42 1009.5
20260504150705 23 39 0.0 3.2 0.00 0.00 0.00 33 1010.1
20260504141205 23 40 3.2 8.0 0.00 0.00 0.00 33 1010.5
20260504140706 23 40 0.0 4.8 0.00 0.00 0.00 33 1010.6
20260504140205 23 42 1.6 4.8 0.00 0.00 0.00 36 1010.6
20260504130705 23 43 3.2 4.8 0.00 0.00 0.00 34 1011.1
20260504120205 22 24 1.6 4.8 0.00 0.00 0.00 31 1011.6